GW5738 Weather Reports


time (UTC)temp
C
wind
direction
speed
KPH
gust
KPH
rain 1hr
cm
rain 24hr
cm
rain mn
cm
humidity
%
barometer
mb
20260504160240 20 156 8.0 29.0 0.00 0.00 0.00 84 1009.0
20260504151051 20 177 9.7 16.1 0.00 0.00 0.00 84 1012.9
20260504150741 20 228 17.7 29.0 0.00 0.00 0.00 84 1009.2
20260504150551 20 234 17.7 32.2 0.00 0.00 0.00 83 1012.5
20260504150241 20 238 11.3 24.1 0.00 0.00 0.00 84 1009.2
20260504141241 19 232 20.9 27.4 0.00 0.00 0.00 84 1009.4
20260504141051 19 207 14.5 19.3 0.00 0.00 0.00 84 1012.9
20260504140741 20 225 17.7 24.1 0.00 0.00 0.00 83 1009.6
20260504140551 19 217 12.9 19.3 0.00 0.00 0.00 84 1012.9
20260504140241 19 225 17.7 24.1 0.00 0.00 0.00 83 1009.5
20260504130740 20 294 6.4 16.1 0.00 0.00 0.00 76 1009.7
20260504130551 21 245 8.0 17.7 0.00 0.00 0.00 76 1013.2
20260504130240 20 207 4.8 17.7 0.00 0.00 0.00 73 1009.8
20260504120241 20 232 6.4 14.5 0.00 0.00 0.00 79 1010.1
20260504110551 20 180 4.8 9.7 0.00 0.00 0.00 76 1013.5
20260504110241 20 195 8.0 8.0 0.00 0.00 0.00 77 1010.0
20260504100553 20 175 17.7 17.7 0.00 0.00 0.00 77 1014.2
20260504100240 20 172 8.0 16.1 0.00 0.00 0.00 77 1010.3
20260504081740 20 157 11.3 14.5 0.00 0.00 0.00 77 1010.7
20260504081550 20 168 9.7 9.7 0.00 0.00 0.00 78 1013.9
20260504081241 20 173 11.3 9.7 0.00 0.00 0.00 78 1010.7
20260504081051 20 208 6.4 9.7 0.00 0.00 0.00 78 1014.2
20260504080741 19 212 3.2 8.0 0.00 0.00 0.00 78 1010.6
20260504080551 19 147 1.6 3.2 0.00 0.00 0.00 79 1014.2
20260504080241 19 145 3.2 6.4 0.00 0.00 0.00 80 1010.9
20260504070241 18 164 6.4 8.0 0.00 0.00 0.00 87 1010.7
20260504060241 17 148 3.2 6.4 0.00 0.00 0.00 91 1010.7
20260504050740 17 116 3.2 4.8 0.00 0.00 0.00 91 1010.6
20260504050550 17 158 1.6 4.8 0.00 0.00 0.00 91 1013.5
20260504050241 17 139 1.6 4.8 0.00 0.00 0.00 91 1010.5
20260504045740 17 174 1.6 6.4 0.00 0.00 0.00 90 1010.7
20260504045551 17 127 1.6 3.2 0.00 0.00 0.00 90 1013.9
20260504045241 17 157 4.8 6.4 0.00 0.00 0.00 90 1010.5
20260504045050 17 166 6.4 6.4 0.00 0.00 0.00 90 1014.2
20260504044740 17 134 6.4 6.4 0.00 0.00 0.00 90 1010.5
20260504044550 17 165 4.8 6.4 0.00 0.00 0.00 90 1013.9
20260504044240 17 166 4.8 6.4 0.00 0.00 0.00 90 1010.6
20260504044050 17 168 4.8 6.4 0.00 0.00 0.00 90 1014.2
20260504043740 17 181 6.4 9.7 0.00 0.00 0.00 90 1010.6
20260504043550 17 179 6.4 8.0 0.00 0.00 0.00 90 1013.9
20260504043241 17 198 4.8 9.7 0.00 0.00 0.00 90 1010.6
20260504043050 17 181 8.0 8.0 0.00 0.00 0.00 90 1013.9
20260504042740 17 198 4.8 8.0 0.00 0.00 0.00 90 1010.5
20260504042551 17 173 4.8 6.4 0.00 0.00 0.00 90 1013.9
20260504042241 17 170 4.8 9.7 0.00 0.00 0.00 90 1010.3
20260504042050 17 166 9.7 9.7 0.00 0.00 0.00 90 1013.5
20260504041740 17 155 4.8 6.4 0.00 0.00 0.00 90 1010.5
20260504041550 17 161 6.4 9.7 0.00 0.00 0.00 90 1013.9
20260504041240 17 155 4.8 6.4 0.00 0.00 0.00 90 1010.7
20260504041051 17 170 6.4 6.4 0.00 0.00 0.00 90 1014.2
20260504040741 17 189 4.8 8.0 0.00 0.00 0.00 90 1010.7
20260504040550 17 184 6.4 6.4 0.00 0.00 0.00 90 1014.2
20260504040240 17 176 6.4 8.0 0.00 0.00 0.00 89 1010.8
20260504040050 17 162 6.4 8.0 0.00 0.00 0.00 90 1014.2
20260504035740 17 172 4.8 8.0 0.00 0.00 0.00 89 1010.8
20260504035552 17 179 8.0 8.0 0.00 0.00 0.00 89 1014.2
20260504035240 17 176 6.4 8.0 0.00 0.00 0.00 89 1010.9
20260504035050 17 187 9.7 9.7 0.00 0.00 0.00 89 1014.2
20260504034740 17 185 4.8 8.0 0.00 0.00 0.00 89 1010.5
20260504034551 17 177 6.4 8.0 0.00 0.00 0.00 89 1014.2
20260504034240 17 185 4.8 8.0 0.00 0.00 0.00 89 1010.8
20260504034051 17 174 9.7 11.3 0.00 0.00 0.00 89 1014.2
20260504033740 17 169 3.2 8.0 0.00 0.00 0.00 89 1010.9
20260504033551 17 168 6.4 8.0 0.00 0.00 0.00 89 1014.2
20260504033241 17 175 8.0 11.3 0.00 0.00 0.00 89 1010.9
20260504033051 17 178 11.3 11.3 0.00 0.00 0.00 89 1014.2
20260504032741 17 191 4.8 12.9 0.00 0.00 0.00 89 1010.9
20260504032551 17 172 9.7 11.3 0.00 0.00 0.00 89 1014.2
20260504032240 17 174 6.4 11.3 0.00 0.00 0.00 89 1011.0
20260504032051 17 176 9.7 11.3 0.00 0.00 0.00 89 1014.2
20260504031741 17 174 4.8 8.0 0.00 0.00 0.00 89 1010.9
20260504031551 17 187 6.4 6.4 0.00 0.00 0.00 89 1014.6
20260504031240 17 168 6.4 9.7 0.00 0.00 0.00 89 1011.0
20260504031050 17 164 4.8 6.4 0.00 0.00 0.00 89 1014.2
20260504030741 17 176 9.7 9.7 0.00 0.00 0.00 89 1011.0
20260504030550 17 165 4.8 9.7 0.00 0.00 0.00 89 1014.2
20260504030240 17 167 4.8 6.4 0.00 0.00 0.00 89 1011.0
20260504030051 17 171 6.4 8.0 0.00 0.00 0.00 89 1014.2
20260504025741 17 170 4.8 8.0 0.00 0.00 0.00 89 1011.0
20260504025550 17 219 4.8 6.4 0.00 0.00 0.00 89 1014.2
20260504025240 17 170 4.8 8.0 0.00 0.00 0.00 89 1010.9
20260504025050 17 194 3.2 6.4 0.00 0.00 0.00 89 1014.2
20260504024741 17 196 3.2 8.0 0.00 0.00 0.00 89 1011.0
20260504024550 17 151 4.8 9.7 0.00 0.00 0.00 89 1014.2
20260504024240 17 189 9.7 9.7 0.00 0.00 0.00 88 1010.9
20260504024052 17 212 6.4 8.0 0.00 0.00 0.00 88 1014.2
20260504023741 17 208 4.8 8.0 0.00 0.00 0.00 88 1010.7
20260504023550 17 201 0.0 6.4 0.00 0.00 0.00 88 1014.2
20260504023240 17 196 6.4 8.0 0.00 0.00 0.00 88 1010.8
20260504023051 17 238 3.2 9.7 0.00 0.00 0.00 88 1014.2
20260504022741 18 211 6.4 8.0 0.00 0.00 0.00 89 1010.6
20260504022550 18 221 6.4 9.7 0.00 0.00 0.00 89 1013.9
20260504022240 18 216 8.0 11.3 0.00 0.00 0.00 89 1010.8
20260504022051 18 205 8.0 9.7 0.00 0.00 0.00 89 1014.2
20260504021740 18 241 6.4 11.3 0.00 0.00 0.00 89 1011.0
20260504021551 18 190 6.4 14.5 0.00 0.00 0.00 89 1014.2
20260504021240 18 241 6.4 11.3 0.00 0.00 0.00 89 1010.8
20260504021050 18 249 8.0 12.9 0.00 0.00 0.00 89 1014.2
20260504020740 18 196 6.4 16.1 0.00 0.00 0.00 89 1010.8
20260504020551 18 192 11.3 16.1 0.00 0.00 0.00 89 1014.2
20260504020241 18 196 4.8 16.1 0.00 0.00 0.00 89 1010.9
20260504020050 18 172 11.3 12.9 0.00 0.00 0.00 89 1014.2
20260504015741 18 248 6.4 16.1 0.00 0.00 0.00 89 1010.9
20260504015550 18 197 11.3 12.9 0.00 0.00 0.00 89 1014.2
20260504015240 18 181 4.8 16.1 0.00 0.00 0.00 88 1011.0
20260504015051 18 194 4.8 20.9 0.00 0.00 0.00 88 1014.2
20260504014740 18 176 11.3 16.1 0.00 0.00 0.00 88 1011.0
20260504014551 18 200 4.8 14.5 0.00 0.00 0.00 88 1014.2
20260504014240 18 205 11.3 16.1 0.00 0.00 0.00 88 1010.9
20260504014050 18 207 9.7 9.7 0.00 0.00 0.00 88 1014.6
20260504013741 18 167 17.7 17.7 0.00 0.00 0.00 88 1010.9
20260504013550 18 182 6.4 17.7 0.00 0.00 0.00 88 1014.2
20260504013241 18 155 11.3 24.1 0.00 0.00 0.00 89 1010.7
20260504013050 18 189 4.8 12.9 0.00 0.00 0.00 89 1014.2
20260504012740 18 166 8.0 20.9 0.00 0.00 0.00 89 1011.0
20260504012550 18 185 14.5 20.9 0.00 0.00 0.00 89 1014.2
20260504012241 18 166 3.2 20.9 0.00 0.00 0.00 89 1010.9
20260504012050 18 210 14.5 20.9 0.00 0.00 0.00 89 1014.2
20260504011740 18 179 19.3 24.1 0.00 0.00 0.00 90 1011.0
20260504011550 18 197 4.8 20.9 0.00 0.00 0.00 89 1014.2
20260504011241 18 179 19.3 24.1 0.00 0.00 0.00 90 1011.1
20260504011050 18 165 8.0 14.5 0.00 0.00 0.00 90 1014.6
20260504010741 18 219 12.9 22.5 0.00 0.00 0.00 90 1011.4
20260504010550 18 197 8.0 22.5 0.00 0.00 0.00 90 1014.9
20260504010241 18 173 14.5 20.9 0.00 0.00 0.00 90 1011.6
20260504010050 18 175 22.5 24.1 0.00 0.00 0.00 90 1014.9
20260504005741 18 188 14.5 19.3 0.00 0.00 0.00 90 1011.6
20260504005550 18 227 8.0 24.1 0.00 0.00 0.00 90 1014.9
20260504005241 18 188 14.5 19.3 0.00 0.00 0.00 90 1011.5
20260504005050 17 144 4.8 22.5 0.00 0.00 0.00 90 1014.9
20260504004741 17 182 8.0 20.9 0.00 0.00 0.00 90 1011.5
20260504004550 17 202 9.7 22.5 0.00 0.00 0.00 90 1014.9
20260504004240 17 154 8.0 22.5 0.00 0.00 0.00 90 1011.4
20260504004050 17 197 8.0 24.1 0.00 0.00 0.00 90 1014.9
20260504003741 17 154 9.7 22.5 0.00 0.00 0.00 90 1011.6
20260504003551 17 235 11.3 14.5 0.00 0.00 0.00 90 1014.9
20260504003241 17 160 11.3 19.3 0.00 0.00 0.00 90 1011.4
20260504003051 17 160 11.3 20.9 0.00 0.00 0.00 90 1014.9
20260504002740 17 174 22.5 25.7 0.00 0.00 0.00 91 1011.2
20260504002551 17 161 25.7 27.4 0.00 0.00 0.00 91 1014.9
20260504002240 17 173 16.1 25.7 0.00 0.00 0.00 91 1011.3
20260504002050 17 170 14.5 22.5 0.00 0.00 0.00 91 1014.6
20260504001740 17 180 16.1 29.0 0.00 0.00 0.00 91 1011.0
20260504001550 17 171 19.3 24.1 0.00 0.00 0.00 91 1014.9
20260504001240 17 169 19.3 24.1 0.00 0.00 0.00 91 1011.3
20260504001051 17 242 11.3 27.4 0.00 0.00 0.00 91 1014.6
20260504000740 17 174 17.7 20.9 0.00 0.00 0.00 91 1011.2
20260504000550 18 165 14.5 20.9 0.00 0.00 0.00 91 1014.6
20260504000241 18 174 17.7 20.9 0.00 0.00 0.00 91 1011.0
20260504000051 18 169 14.5 20.9 0.00 0.00 0.00 91 1014.6
20260503235741 17 177 14.5 20.9 0.00 0.00 0.00 91 1010.9
20260503235550 17 173 16.1 25.7 0.00 0.00 0.00 91 1014.6
20260503235240 18 167 17.7 22.5 0.00 0.00 0.00 91 1011.1
20260503235051 18 166 17.7 22.5 0.00 0.00 0.00 91 1014.6
20260503234740 18 169 9.7 20.9 0.00 0.00 0.00 91 1011.1
20260503234550 18 174 16.1 19.3 0.00 0.00 0.00 91 1014.6
20260503234241 18 169 14.5 24.1 0.00 0.00 0.00 91 1011.1
20260503234050 18 170 12.9 16.1 0.00 0.00 0.00 91 1014.6
20260503233741 18 169 14.5 24.1 0.00 0.00 0.00 91 1011.3
20260503233551 18 168 8.0 17.7 0.00 0.00 0.00 91 1014.6
20260503233240 18 167 12.9 24.1 0.00 0.00 0.00 91 1011.3
20260503233051 18 177 11.3 22.5 0.00 0.00 0.00 91 1014.9
20260503232740 18 163 16.1 20.9 0.00 0.00 0.00 91 1011.3
20260503232551 17 177 8.0 24.1 0.00 0.00 0.00 91 1014.6
20260503232240 17 163 16.1 20.9 0.00 0.00 0.00 91 1011.3
20260503232050 17 177 9.7 22.5 0.00 0.00 0.00 91 1014.6
20260503231740 17 180 11.3 20.9 0.00 0.00 0.00 91 1011.4
20260503231551 17 169 12.9 20.9 0.00 0.00 0.00 91 1014.9
20260503231240 17 166 19.3 29.0 0.00 0.00 0.00 91 1011.5
20260503231051 17 185 17.7 27.4 0.00 0.00 0.00 91 1014.9
20260503230740 17 170 20.9 35.4 0.00 0.00 0.00 91 1011.4
20260503230550 17 173 14.5 25.7 0.00 0.00 0.00 91 1014.9
20260503230241 17 168 20.9 24.1 0.00 0.00 0.00 91 1011.5
20260503230050 17 175 14.5 27.4 0.00 0.00 0.00 91 1014.9
20260503225741 17 162 11.3 33.8 0.05 0.00 0.00 91 1011.4
20260503225550 17 174 17.7 30.6 0.00 0.00 0.00 91 1014.9
20260503225240 17 154 17.7 30.6 0.05 0.00 0.00 91 1011.5
20260503225050 17 166 22.5 24.1 0.00 0.00 0.00 91 1014.9
20260503224740 17 166 24.1 30.6 0.05 0.00 0.00 91 1011.6
20260503224551 17 159 17.7 24.1 0.00 0.00 0.00 91 1014.6
20260503224241 17 166 20.9 30.6 0.05 0.00 0.00 91 1011.4
20260503224051 17 171 17.7 27.4 0.00 0.00 0.00 91 1014.9
20260503223741 17 137 17.7 29.0 0.05 0.00 0.00 91 1011.4
20260503223551 17 186 22.5 25.7 0.00 0.00 0.00 91 1014.9
20260503223241 17 172 24.1 30.6 0.05 0.00 0.00 91 1011.4
20260503223050 17 165 25.7 33.8 0.00 0.00 0.00 91 1014.9
20260503222741 17 154 8.0 27.4 0.05 0.00 0.00 91 1011.3
20260503222550 17 163 16.1 29.0 0.00 0.00 0.00 91 1014.9
20260503222241 17 162 17.7 27.4 0.05 0.00 0.00 91 1011.5
20260503222051 17 145 9.7 27.4 0.00 0.00 0.00 90 1014.9
20260503221740 17 162 17.7 30.6 0.05 0.00 0.00 90 1011.4
20260503221550 17 180 11.3 24.1 0.00 0.00 0.00 90 1014.6
20260503221240 17 164 17.7 22.5 0.05 0.00 0.00 90 1011.3
20260503221050 17 168 14.5 29.0 0.00 0.00 0.00 90 1014.9
20260503220740 17 173 16.1 27.4 0.05 0.00 0.00 89 1011.5
20260503220550 18 181 16.1 32.2 0.00 0.00 0.00 89 1014.9
20260503220241 18 174 22.5 29.0 0.00 0.00 0.00 89 1011.5
20260503220050 18 157 17.7 24.1 0.00 0.00 0.00 89 1014.6
20260503215741 18 166 19.3 25.7 0.00 0.00 0.00 89 1011.3
20260503215550 18 151 14.5 22.5 0.00 0.00 0.00 89 1014.6
20260503215241 18 160 17.7 27.4 0.00 0.00 0.00 88 1011.3
20260503215051 18 152 20.9 25.7 0.00 0.00 0.00 88 1014.6
20260503214740 18 155 16.1 32.2 0.00 0.00 0.00 87 1011.2
20260503214550 18 148 6.4 20.9 0.00 0.00 0.00 88 1014.6
20260503214240 18 155 16.1 32.2 0.00 0.00 0.00 87 1011.1
20260503214050 18 149 12.9 20.9 0.00 0.00 0.00 87 1014.6
20260503213742 18 113 3.2 19.3 0.00 0.00 0.00 86 1011.2
20260503213550 18 133 16.1 20.9 0.00 0.00 0.00 87 1014.2
20260503213241 18 113 3.2 19.3 0.00 0.00 0.00 86 1011.2
20260503213051 18 128 14.5 19.3 0.00 0.00 0.00 86 1014.6
20260503212741 18 172 4.8 14.5 0.00 0.00 0.00 86 1011.2
20260503212550 18 171 11.3 16.1 0.00 0.00 0.00 86 1014.2
20260503212241 18 123 3.2 12.9 0.00 0.00 0.00 86 1010.8
20260503212050 18 162 9.7 11.3 0.00 0.00 0.00 86 1014.2
20260503211740 18 123 3.2 12.9 0.00 0.00 0.00 86 1010.8
20260503211550 18 159 9.7 17.7 0.00 0.00 0.00 85 1014.6
20260503211241 18 176 14.5 16.1 0.00 0.00 0.00 85 1011.1
20260503211050 18 154 4.8 14.5 0.00 0.00 0.00 85 1014.6
20260503210741 18 161 6.4 14.5 0.00 0.00 0.00 85 1010.8
20260503210550 18 159 6.4 14.5 0.00 0.00 0.00 85 1014.2
20260503210241 18 132 14.5 14.5 0.00 0.00 0.00 85 1011.0
20260503210050 18 133 12.9 14.5 0.00 0.00 0.00 85 1014.2
20260503205740 18 138 3.2 9.7 0.00 0.00 0.00 85 1010.8
20260503205550 18 123 3.2 14.5 0.00 0.00 0.00 85 1014.2
20260503205241 18 107 4.8 11.3 0.00 0.00 0.00 86 1010.8
20260503205050 18 123 17.7 17.7 0.00 0.00 0.00 86 1014.2
20260503204740 18 122 6.4 12.9 0.00 0.00 0.00 86 1011.1
20260503204550 18 147 9.7 16.1 0.00 0.00 0.00 86 1014.6
20260503204241 18 163 6.4 12.9 0.00 0.00 0.00 86 1011.3
20260503204051 18 178 6.4 11.3 0.00 0.00 0.00 86 1014.6
20260503203740 18 162 9.7 16.1 0.00 0.00 0.00 86 1011.3
20260503203551 18 146 9.7 16.1 0.00 0.00 0.00 86 1014.9
20260503203241 18 162 11.3 16.1 0.00 0.00 0.00 86 1011.3
20260503203051 18 174 11.3 12.9 0.00 0.00 0.00 87 1014.9
20260503202740 18 161 6.4 12.9 0.00 0.00 0.00 87 1011.3
20260503202551 18 179 4.8 14.5 0.00 0.00 0.00 87 1014.6
20260503202240 18 161 8.0 12.9 0.00 0.00 0.00 87 1011.1
20260503202050 18 170 1.6 12.9 0.00 0.00 0.00 87 1014.9
20260503201740 18 169 6.4 9.7 0.00 0.00 0.00 86 1011.3
20260503201551 18 155 8.0 11.3 0.00 0.00 0.00 87 1014.9
20260503201241 18 188 4.8 9.7 0.00 0.00 0.00 86 1011.6
20260503201052 18 178 6.4 8.0 0.00 0.00 0.00 86 1014.9
20260503200740 18 184 8.0 11.3 0.00 0.00 0.00 85 1011.6
20260503200550 18 174 6.4 9.7 0.00 0.00 0.00 86 1014.9
20260503200241 18 164 6.4 11.3 0.00 0.00 0.00 84 1011.5
20260503200050 18 142 6.4 12.9 0.00 0.00 0.00 85 1014.9
20260503195741 18 165 6.4 9.7 0.00 0.00 0.00 84 1011.4
20260503195550 18 176 4.8 8.0 0.00 0.00 0.00 84 1014.9
20260503195241 18 165 6.4 9.7 0.00 0.00 0.00 84 1011.6
20260503195050 18 146 4.8 8.0 0.00 0.00 0.00 84 1014.9
20260503194740 18 177 6.4 8.0 0.00 0.00 0.00 83 1011.3
20260503194550 18 195 4.8 8.0 0.00 0.00 0.00 83 1014.9
20260503194241 18 158 6.4 8.0 0.00 0.00 0.00 82 1011.5
20260503194050 18 157 4.8 8.0 0.00 0.00 0.00 83 1014.6
20260503193741 18 192 3.2 8.0 0.00 0.00 0.00 82 1011.4
20260503193551 18 175 6.4 8.0 0.00 0.00 0.00 82 1014.6
20260503193241 18 151 6.4 6.4 0.00 0.00 0.00 82 1011.1
20260503193050 18 134 6.4 8.0 0.00 0.00 0.00 82 1014.6
20260503192741 18 136 4.8 8.0 0.00 0.00 0.00 82 1010.9
20260503192550 18 176 4.8 8.0 0.00 0.00 0.00 81 1014.2
20260503192241 18 136 6.4 8.0 0.00 0.00 0.00 81 1011.0
20260503192051 18 134 4.8 8.0 0.00 0.00 0.00 81 1014.2
20260503191740 18 196 4.8 8.0 0.00 0.00 0.00 81 1011.2
20260503191551 18 173 6.4 6.4 0.00 0.00 0.00 81 1014.6
20260503191241 18 172 6.4 8.0 0.00 0.00 0.00 82 1011.1
20260503191051 18 193 6.4 9.7 0.00 0.00 0.00 81 1014.2
20260503190740 19 167 1.6 8.0 0.00 0.00 0.00 82 1011.0
20260503190550 19 178 6.4 6.4 0.00 0.00 0.00 82 1014.6
20260503190241 19 167 1.6 8.0 0.00 0.00 0.00 82 1011.1
20260503190050 19 224 3.2 6.4 0.00 0.00 0.00 83 1014.6
20260503185740 19 271 4.8 6.4 0.00 0.00 0.00 83 1011.1
20260503185550 19 229 4.8 8.0 0.00 0.00 0.00 83 1014.2
20260503185241 19 271 4.8 6.4 0.00 0.00 0.00 83 1011.1
20260503185050 19 241 4.8 6.4 0.00 0.00 0.00 82 1014.2
20260503184740 19 262 9.7 9.7 0.00 0.00 0.00 81 1011.0
20260503184550 19 260 4.8 9.7 0.00 0.00 0.00 81 1014.2
20260503184241 19 262 9.7 9.7 0.00 0.00 0.00 81 1011.1
20260503184051 19 263 6.4 6.4 0.00 0.00 0.00 80 1014.6
20260503183741 19 250 3.2 6.4 0.00 0.00 0.00 80 1010.9
20260503183551 20 227 3.2 4.8 0.00 0.00 0.00 79 1014.2
20260503183240 20 249 3.2 6.4 0.00 0.00 0.00 79 1010.7
20260503183050 20 255 3.2 6.4 0.00 0.00 0.00 79 1014.2
20260503182740 20 247 1.6 6.4 0.00 0.00 0.00 78 1010.8
20260503182551 20 237 1.6 4.8 0.00 0.00 0.00 78 1014.2
20260503182241 20 232 4.8 6.4 0.00 0.00 0.00 78 1010.8
20260503182051 20 232 8.0 9.7 0.00 0.00 0.00 77 1014.2
20260503181740 20 236 3.2 8.0 0.00 0.00 0.00 76 1010.9
20260503181550 20 247 1.6 6.4 0.00 0.00 0.00 77 1014.2
20260503181240 20 210 8.0 8.0 0.00 0.00 0.00 76 1010.6
20260503181051 20 226 6.4 6.4 0.00 0.00 0.00 76 1014.2
20260503180741 20 210 8.0 8.0 0.00 0.00 0.00 76 1010.5
20260503180550 20 202 6.4 9.7 0.00 0.00 0.00 76 1013.9
20260503180240 20 137 3.2 8.0 0.00 0.00 0.00 75 1010.5
20260503180051 20 157 6.4 9.7 0.00 0.00 0.00 74 1014.2
20260503175740 20 132 1.6 14.5 0.00 0.00 0.00 74 1010.5
20260503175551 20 108 0.0 8.0 0.00 0.00 0.00 74 1013.9
20260503175241 20 84 8.0 14.5 0.00 0.00 0.00 74 1010.6
20260503175050 20 186 3.2 9.7 0.00 0.00 0.00 74 1013.9
20260503174741 20 87 3.2 12.9 0.00 0.00 0.00 74 1010.5
20260503174550 20 103 11.3 12.9 0.00 0.00 0.00 74 1013.9
20260503174241 20 87 3.2 12.9 0.00 0.00 0.00 74 1010.5
20260503174050 20 107 6.4 12.9 0.00 0.00 0.00 73 1013.9
20260503173741 20 120 6.4 8.0 0.00 0.00 0.00 73 1010.5
20260503173550 20 53 8.0 9.7 0.00 0.00 0.00 73 1013.9
20260503173241 20 71 8.0 12.9 0.00 0.00 0.00 73 1010.6
20260503173050 20 91 11.3 11.3 0.00 0.00 0.00 72 1013.9
20260503172741 20 85 9.7 12.9 0.00 0.00 0.00 70 1010.6
20260503172551 20 103 14.5 14.5 0.00 0.00 0.00 70 1013.9
20260503172240 21 142 0.0 4.8 0.00 0.00 0.00 71 1010.4
20260503172051 21 27 3.2 8.0 0.00 0.00 0.00 72 1013.9
20260503171740 21 257 3.2 6.4 0.00 0.00 0.00 68 1010.7
20260503171551 21 224 1.6 8.0 0.00 0.00 0.00 70 1014.2
20260503171240 21 121 3.2 6.4 0.00 0.00 0.00 68 1010.5
20260503171051 21 252 1.6 4.8 0.00 0.00 0.00 69 1014.2
20260503170741 21 20 1.6 3.2 0.00 0.00 0.00 69 1010.6
20260503170551 21 324 3.2 4.8 0.00 0.00 0.00 69 1013.9
20260503170240 21 20 1.6 3.2 0.00 0.00 0.00 69 1010.7